Preview of NWS' New Version of Forecast
This preview is not operational and should not be used for support decisions.

Regional Weather Roundup (RWR)

Issued by National Weather Service (NWS)

                            
000
ASUS43 KTOP 182008
RWRKS 

WEATHER ROUNDUP FOR KANSAS
NATIONAL WEATHER SERVICE GOODLAND KS
300 PM CDT TUE JUN 18 2019

NOTE:  "FAIR" INDICATES FEW OR NO CLOUDS BELOW 12,000 FEET WITH NO
SIGNIFICANT WEATHER AND/OR OBSTRUCTIONS TO VISIBILITY.

KSZ001>006-013>018-027>032-041>047-182100-
NORTHWEST KANSAS
  
CITY           SKY/WX    TMP DP  RH WIND       PRES   REMARKS
GOODLAND       LGT RAIN  66  61  84 N8        30.00F                  
HAYS           PTSUNNY   68  63  84 SE3       29.94F                  
HILL CITY      HVY RAIN  64  62  93 N22G28    29.95R FOG              
RUSSELL        LGT RAIN  70  63  78 CALM      29.92F                  
$$

KSZ061>065-074>080-084>089-182100-
SOUTHWEST KANSAS
  
CITY           SKY/WX    TMP DP  RH WIND       PRES   REMARKS
DODGE CITY     MOSUNNY   79  65  62 VRB7      29.92F                  
ELKHART        SUNNY     82  61  49 W5        29.97F                  
GARDEN CITY    CLOUDY    76  60  57 W5        29.94F                  
GREAT BEND     PTSUNNY   70  66  88 NW6       29.93F                  
LIBERAL        SUNNY     81  61  50 VRB5      29.94F                  
PRATT          CLOUDY    80  63  57 SW12      29.89F                  
$$

KSZ066>073-081>083-090>101-182100-
SOUTHEAST KANSAS
  
CITY           SKY/WX    TMP DP  RH WIND       PRES   REMARKS
CHANUTE        SUNNY     84  67  56 E10       29.88F                  
COFFEYVILLE    SUNNY     84  65  52 SE6       29.87F                  
HUTCHINSON     MOSUNNY   77  64  64 N12       29.88F                  
MEDICINE LODGE   N/A     84  61  45 S13       29.85F                  
NEWTON         CLOUDY    74  65  73 N16       29.90F                  
PARSONS        MOSUNNY   83  67  58 VRB5      29.89F                  
WICHITA INTL   MOSUNNY   81  66  60 SE8       29.86F                  
WICHITA JABRA  MOSUNNY   83  69  62 S10       29.87F                  
WICHITA MCCONL PTSUNNY   82  67  59 SE8       29.87F                  
WINFIELD       MOSUNNY   83  67  58 S9        29.89F                  
$$

KSZ007>012-019>026-033>040-048>060-102>105-182100-
NORTHEAST KANSAS
  
CITY           SKY/WX    TMP DP  RH WIND       PRES   REMARKS
CONCORDIA      LGT RAIN  68  65  90 E8        29.91F                  
EMPORIA        PTSUNNY   81  67  62 S9        29.87F                  
LAWRENCE       SUNNY     81  62  52 E8        29.87F                  
MANHATTAN      FOG       69  66  90 SW8G28    29.90R THUNDER VSB 1    
MARYSVILLE     RAIN      70  64  83 N6        29.89S                  
OLATHE IND     SUNNY     80  59  48 VRB6      29.89F                  
OLATHE EXE     MOSUNNY   79  65  62 SE5       29.89F                  
SALINA         RAIN      67  65  93 SW8       29.92F FOG              
TOPEKA BILLARD PTSUNNY   80  64  58 SE9       29.87F                  
TOPEKA FORBES  SUNNY     80  65  59 SE8       29.87F                  
$$